GW1458 Weather Reports


Display with metric or nautical units.
time (UTC)temp
F
wind
direction
speed
MPH
gust
MPH
rain 1hr
in
rain 24hr
in
rain mn
in
humidity
%
barometer
mb
20260502123031 47 240 3.0 4.0 0.00 0.00 0.00 35 1018.2
20260502121532 44 38 0.0 2.0 0.00 0.00 0.00 37 1018.2
20260502114538 44 270 0.0 2.0 0.00 0.00 0.00 39 1018.2
20260502113031 44 314 0.0 2.0 0.00 0.00 0.00 39 1018.2
20260502111533 46 0 0.0 4.0 0.00 0.00 0.00 36 1018.3
20260502110029 43 278 1.0 3.0 0.00 0.00 0.00 39 1018.5
20260502104531 41 0 0.0 1.0 0.00 0.00 0.00 41 1018.5
20260502103030 42 274 0.0 3.0 0.00 0.00 0.00 39 1018.6
20260502101529 43 270 0.0 4.0 0.00 0.00 0.00 39 1018.7
20260502091529 45 283 2.0 7.0 0.00 0.00 0.00 39 1018.9
20260502071532 43 332 1.0 4.0 0.00 0.00 0.00 48 1020.1
20260502070034 44 0 0.0 2.0 0.00 0.00 0.00 46 1019.9
20260502064541 46 265 0.0 4.0 0.00 0.00 0.00 44 1019.9
20260502063031 44 0 0.0 2.0 0.00 0.00 0.00 47 1020.1
20260502061531 46 214 1.0 3.0 0.00 0.00 0.00 44 1020.1
20260502060041 48 0 0.0 6.0 0.00 0.00 0.00 45 1020.1
20260502054529 46 0 0.0 5.0 0.00 0.00 0.00 47 1020.1
20260502053030 45 0 0.0 3.0 0.00 0.00 0.00 48 1020.2
20260502051534 46 0 0.0 3.0 0.00 0.00 0.00 48 1020.2
20260502050033 44 290 0.0 3.0 0.00 0.00 0.00 54 1020.2
20260502044528 45 0 0.0 2.0 0.00 0.00 0.00 49 1020.3
20260502043029 46 243 0.0 2.0 0.00 0.00 0.00 50 1020.4
20260502041534 46 345 0.0 2.0 0.00 0.00 0.00 44 1020.5
20260502040032 47 0 0.0 0.0 0.00 0.00 0.00 44 1020.6
20260502034533 46 248 3.0 4.0 0.00 0.00 0.00 45 1020.4
20260502033031 46 309 1.0 4.0 0.00 0.00 0.00 46 1020.4
20260502031530 48 288 1.0 5.0 0.00 0.00 0.00 44 1020.3
20260502030032 48 250 1.0 4.0 0.00 0.00 0.00 45 1020.2
20260502024533 49 274 2.0 5.0 0.00 0.00 0.00 43 1020.0
20260502023029 52 282 2.0 4.0 0.00 0.00 0.00 38 1019.8
20260502021528 54 317 4.0 9.0 0.00 0.00 0.00 34 1019.8
20260502020034 55 319 4.0 8.0 0.00 0.00 0.00 35 1019.7
20260502014532 56 353 8.0 14.0 0.00 0.00 0.00 30 1019.5
20260502013031 57 342 7.0 14.0 0.00 0.00 0.00 30 1019.4
20260502011530 58 345 11.0 17.0 0.00 0.00 0.00 29 1019.3
20260502010031 60 348 15.0 19.0 0.00 0.00 0.00 29 1019.2
20260502004539 60 322 15.0 21.0 0.00 0.00 0.00 27 1019.2
20260502003029 60 311 17.0 24.0 0.00 0.00 0.00 28 1019.1
20260502001532 60 309 18.0 26.0 0.00 0.00 0.00 25 1018.9
20260502000029 61 332 19.0 29.0 0.00 0.00 0.00 27 1018.9
20260501234532 61 352 21.0 28.0 0.00 0.00 0.00 26 1018.8
20260501233031 61 351 21.0 27.0 0.00 0.00 0.00 26 1018.9
20260501231532 61 352 21.0 31.0 0.00 0.00 0.00 26 1018.8
20260501230031 61 275 23.0 31.0 0.00 0.00 0.00 26 1018.9
20260501224532 61 34 24.0 31.0 0.00 0.00 0.00 27 1018.9
20260501223029 61 11 22.0 35.0 0.00 0.00 0.00 26 1018.7
20260501221530 61 349 22.0 33.0 0.00 0.00 0.00 27 1018.9
20260501220037 60 349 21.0 33.0 0.00 0.00 0.00 25 1018.9
20260501214530 60 305 19.0 32.0 0.00 0.00 0.00 26 1019.0
20260501213036 60 337 25.0 37.0 0.00 0.00 0.00 24 1018.9
20260501211533 60 340 25.0 40.0 0.00 0.00 0.00 27 1019.0
20260501210033 60 345 26.0 37.0 0.00 0.00 0.00 27 1019.1
20260501204544 61 340 21.0 33.0 0.00 0.00 0.00 27 1019.1
20260501203031 61 195 13.0 29.0 0.00 0.00 0.00 27 1019.3
20260501201531 60 356 24.0 34.0 0.00 0.00 0.00 27 1019.1
20260501200034 60 282 17.0 34.0 0.00 0.00 0.00 26 1019.4
20260501194532 59 344 29.0 40.0 0.00 0.00 0.00 27 1019.0
20260501193029 59 347 23.0 36.0 0.00 0.00 0.00 28 1019.5
20260501191539 59 337 18.0 39.0 0.00 0.00 0.00 27 1019.5
20260501190029 60 238 23.0 40.0 0.00 0.00 0.00 29 1019.4
20260501184542 58 330 26.0 34.0 0.00 0.00 0.00 26 1019.4
20260501183036 59 6 15.0 33.0 0.00 0.00 0.00 26 1019.4
20260501181530 58 342 28.0 42.0 0.00 0.00 0.00 27 1019.3
20260501180030 58 347 26.0 38.0 0.00 0.00 0.00 29 1019.3
20260501174532 58 348 27.0 37.0 0.00 0.00 0.00 29 1019.3
20260501173029 58 330 24.0 34.0 0.00 0.00 0.00 27 1019.3
20260501171546 58 322 19.0 32.0 0.00 0.00 0.00 30 1019.3
20260501170038 58 356 13.0 35.0 0.00 0.00 0.00 28 1019.5
20260501164531 57 330 12.0 34.0 0.00 0.00 0.00 29 1019.5
20260501163031 57 343 15.0 35.0 0.00 0.00 0.00 30 1019.2
20260501161532 56 326 24.0 38.0 0.00 0.00 0.00 29 1019.4
20260501160033 56 287 18.0 29.0 0.00 0.00 0.00 32 1019.6
20260501154540 55 352 18.0 25.0 0.00 0.00 0.00 34 1019.6
20260501153031 55 4 19.0 24.0 0.00 0.00 0.00 31 1019.6
20260501151534 55 345 13.0 23.0 0.00 0.00 0.00 33 1019.7
20260501150032 55 345 15.0 26.0 0.00 0.00 0.00 33 1019.8
20260501144532 55 335 11.0 21.0 0.00 0.00 0.00 32 1019.7
20260501143034 55 335 9.0 16.0 0.00 0.00 0.00 32 1019.8